[[{"header":{"parameterUnit":"m.s-1","parameterCategory":1,"la1":30.2992,"la2":30.254,"lo1":-89.0895,"lo2":-89.0443,"dy":0.0025,"dx":0.0025,"nx":19,"ny":19,"refTime":"2026-04-28T21:00:00:Z","depth":0,"parameterNumber":2,"parameterNumberName":"U-component_of_WINDS"},"data":[0,0,0,3.6899,3.6899,3.6901,3.6901,3.6944,3.6945,0,0,0,0,0,0,0,0,0,0,0,3.6922,3.6923,3.6899,3.6899,3.6901,3.6901,3.6944,3.6945,0,0,0,0,0,0,0,0,0,0,0,3.6921,3.6922,3.6924,3.6899,3.6902,3.6901,3.6944,3.6928,0,0,0,0,0,0,0,0,0,0,3.6919,3.6963,3.6922,3.6924,3.69,3.6902,3.6901,3.6927,3.6929,3.696,0,3.6993,0,3.697,3.695,3.695,0,0,0,3.6882,3.6961,3.694,3.6924,3.69,3.6902,3.6896,3.6928,3.693,3.6964,3.6993,3.6994,3.6971,3.6951,3.6951,3.7184,3.7185,0,0,3.6882,3.6935,3.6939,3.6943,3.6945,3.6896,3.6896,3.6929,3.6965,3.6993,3.6994,3.6971,3.6951,3.6952,3.7182,3.7184,0,0,0,3.6893,3.6936,3.6913,3.6943,3.694,3.6896,3.6896,3.6963,3.6952,3.6994,3.6972,3.6952,3.6953,3.718,3.7183,3.7325,0,0,0,3.6892,3.6942,3.6914,3.6946,3.694,3.6952,3.6931,3.6949,3.6951,3.6972,3.6952,3.6953,3.7177,3.7181,3.7316,3.7382,0,0,0,3.6913,3.6944,3.6952,3.6949,3.6952,3.695,3.6939,3.6948,3.6939,3.695,3.6954,3.7176,3.7181,3.7309,3.737,3.7456,0,0,0,3.6951,3.7081,3.6956,3.7092,3.6952,3.7039,3.6938,3.7001,3.7028,3.6952,3.7178,3.7182,3.7306,3.7362,3.7449,3.7536,3.7579,0,0,3.7144,3.7106,3.7182,3.707,3.7191,3.7034,3.7177,3.7153,3.7107,3.7161,3.7166,3.7319,3.7369,3.7455,3.7803,3.7838,0,0,0,3.7261,3.7315,3.7336,3.7364,3.7348,3.7339,3.7288,3.7279,3.7322,3.7145,3.7374,3.7402,3.745,3.7489,3.7518,3.7555,3.7204,3.7203,3.7203,3.7607,3.754,3.766,3.7593,3.7622,3.7567,3.7584,3.7563,3.7489,3.7544,3.7558,3.7778,3.7826,3.7847,3.7886,3.7602,3.7603,3.7603,3.7604,3.788,3.7945,3.7843,3.7922,3.7851,3.7917,3.7871,3.7816,3.7867,3.7762,3.7801,3.7689,3.7887,3.7917,3.7614,3.7612,3.7611,3.761,3.7609,3.8096,3.8115,3.8102,3.8134,3.8167,3.8097,3.815,3.8085,3.8024,3.8063,3.8069,3.8066,3.8053,3.8071,3.8072,3.8073,3.8073,3.8074,3.8074,3.8324,3.8305,3.8356,3.8351,3.8359,3.8362,3.831,3.8316,3.8307,3.8255,3.8255,3.8174,3.792,3.7855,3.8086,3.8084,3.8082,3.8081,3.808,3.8619,3.8542,3.8622,3.8631,3.8618,3.8654,3.857,3.859,3.8587,3.8615,3.8526,3.835,3.8307,3.8283,3.8229,3.8542,3.8542,3.8542,3.8542,3.8799,3.8771,3.8836,3.8854,3.8864,3.8797,3.889,3.8851,3.8799,3.8792,3.8739,3.8663,3.8642,3.861,3.8579,3.8527,3.891,3.891,3.8911,3.8975,3.8945,3.9035,3.8981,3.8966,3.8955,3.904,3.9065,3.899,3.8924,3.8785,3.877,3.8646,3.861,3.8537,3.8491,3.8395,0,0]},{"header":{"parameterUnit":"m.s-1","parameterCategory":1,"la1":30.2992,"la2":30.254,"lo1":-89.0895,"lo2":-89.0443,"dy":0.0025,"dx":0.0025,"nx":19,"ny":19,"refTime":"2026-04-28T21:00:00:Z","depth":0,"parameterNumber":3,"parameterNumberName":"V-component_of_WINDS"},"data":[0,0,0,2.0961,2.0964,2.1139,2.1139,2.1349,2.1351,0,0,0,0,0,0,0,0,0,0,0,2.0903,2.0904,2.0961,2.0965,2.1139,2.114,2.1349,2.1351,0,0,0,0,0,0,0,0,0,0,0,2.0902,2.0904,2.0905,2.0965,2.1139,2.114,2.1348,2.1221,0,0,0,0,0,0,0,0,0,0,2.1054,2.0995,2.0903,2.0905,2.0966,2.1138,2.114,2.1216,2.1229,2.1265,0,2.1296,0,2.1327,2.1364,2.1365,0,0,0,2.097,2.0983,2.1036,2.0905,2.0968,2.1138,2.1062,2.1223,2.1239,2.1283,2.1299,2.1307,2.133,2.1365,2.1366,2.1558,2.1559,0,0,2.096,2.0931,2.1025,2.1046,2.1019,2.1056,2.1067,2.1233,2.1248,2.13,2.1313,2.1334,2.1367,2.1368,2.1558,2.1558,0,0,0,2.0929,2.0924,2.0973,2.1037,2.1069,2.1061,2.1074,2.1241,2.1259,2.1315,2.1336,2.1368,2.137,2.1557,2.1558,2.1562,0,0,0,2.0924,2.0906,2.0968,2.0952,2.1066,2.1158,2.1077,2.1248,2.1267,2.1335,2.1368,2.1372,2.1556,2.1557,2.1561,2.157,0,0,0,2.0894,2.0902,2.0925,2.095,2.1024,2.1156,2.1184,2.1253,2.128,2.1365,2.1373,2.1556,2.1557,2.1559,2.1567,2.1611,0,0,0,2.0853,2.0927,2.0925,2.1016,2.1022,2.1157,2.1183,2.1285,2.1358,2.1369,2.1556,2.1558,2.1559,2.1566,2.1609,2.1642,2.1654,0,0,2.093,2.0936,2.0991,2.0994,2.1122,2.1133,2.1261,2.1356,2.1391,2.15,2.1505,2.1561,2.1567,2.1611,2.1726,2.1735,0,0,0,2.1006,2.1045,2.1086,2.1154,2.1228,2.1292,2.137,2.1405,2.1499,2.1441,2.159,2.1594,2.1621,2.1638,2.1645,2.167,2.1564,2.1564,2.1564,2.1073,2.1113,2.1208,2.1268,2.1334,2.1413,2.147,2.153,2.1552,2.1585,2.1618,2.1684,2.1703,2.1708,2.1733,2.1639,2.1639,2.1639,2.1639,2.119,2.1252,2.1277,2.1378,2.1419,2.1504,2.1582,2.1594,2.1678,2.1663,2.1688,2.1668,2.1717,2.174,2.164,2.164,2.164,2.164,2.164,2.1238,2.1275,2.1316,2.1418,2.1491,2.1549,2.1628,2.1663,2.1696,2.1721,2.1759,2.1759,2.1763,2.1737,2.1737,2.1737,2.1738,2.1738,2.1738,2.1273,2.1319,2.1382,2.1465,2.1512,2.1579,2.1658,2.1705,2.1766,2.1785,2.1786,2.1803,2.1714,2.1691,2.1742,2.1741,2.174,2.174,2.174,2.1377,2.1358,2.1455,2.1503,2.1602,2.1672,2.1715,2.1808,2.1852,2.1889,2.1901,2.1829,2.1837,2.1832,2.1813,2.1892,2.1892,2.1892,2.1892,2.1418,2.1425,2.1531,2.1604,2.168,2.1727,2.1834,2.1894,2.1954,2.1984,2.1977,2.1955,2.1947,2.196,2.1951,2.1934,2.2043,2.2043,2.2043,2.1483,2.1499,2.1584,2.1642,2.1722,2.1789,2.189,2.1972,2.2036,2.205,2.2007,2.2001,2.1965,2.1952,2.1965,2.1952,2.1921,0,0]}]]